Temperature
10 10 10 10 10 10 10 10 10 10 10 10 10 10 10 10 10 10 10 10 9 9 9 9 9 9 9 9 9 9 9 10 10 10 10 10 10 10 10 10 10 10 10
10 10 10 10 9 9 9 9 9 9 10 10 10 9 9 9 9 9 9 9 9 9 9 9 9 9 9 9 9 9 9 9 9 9 9 9 9 10 10 10 10 10 10
9 9 9 9 9 9 9 9 9 9 9 9 9 9 9 9 9 9 9 9 9 9 9 9 9 9 9 8 9 9 9 9 9 9 9 9 9 9 9 9 10 10 10
8 9 9 9 9 8 8 8 8 9 9 9 9 9 8 8 8 8 8 9 9 9 9 9 9 9 8 8 8 8 8 8 8 8 8 8 9 9 9 9 9 9 9
8 8 8 8 8 8 8 8 8 8 8 8 8 8 8 8 8 8 8 8 8 8 8 8 8 8 8 8 8 8 8 8 8 8 8 8 8 8 9 9 9 9 9
7 7 7 8 8 8 8 8 8 8 8 8 8 7 7 7 7 7 7 7 7 7 8 8 8 8 8 8 8 7 7 7 7 8 8 8 8 8 8 8 8 8 8
6 7 7 7 7 7 7 7 7 7 7 7 7 7 7 7 6 6 6 7 7 7 7 7 7 7 7 7 7 7 7 7 7 7 7 7 7 7 8 8 8 8 8
6 6 6 6 6 6 6 7 7 7 7 6 6 6 6 6 6 6 6 6 6 6 6 6 7 7 7 7 7 7 7 7 7 7 7 7 7 7 7 7 7 8 8
5 5 5 5 5 6 6 6 6 6 6 6 6 6 5 5 5 5 5 6 6 6 6 6 6 6 6 6 6 6 6 6 6 6 6 6 7 7 7 7 7 7 7
4 4 5 5 5 5 5 5 5 5 6 6 5 5 5 5 5 5 5 5 5 5 5 5 5 5 6 6 6 6 6 6 6 6 6 6 6 6 6 6 6 7 7
4 4 4 4 4 4 4 4 4 4 5 5 5 5 5 5 4 4 4 5 5 5 5 5 5 5 5 5 5 5 5 5 5 5 5 5 6 6 6 6 6 6 6
4 4 4 4 4 4 4 4 4 4 4 4 4 4 4 4 4 3 3 4 4 4 4 4 4 4 4 4 4 4 5 5 5 5 5 5 5 5 5 5 5 5 6
3 3 3 3 3 3 3 3 3 3 3 3 3 3 3 3 3 3 3 2 3 3 4 4 4 4 4 4 4 4 4 4 4 4 4 4 4 4 4 5 5 5 5
3 3 3 3 3 3 3 3 3 3 3 3 3 3 3 3 3 3 2 2 2 2 2 3 3 3 3 3 3 3 3 4 4 4 4 4 4 4 4 4 4 4 4
2 2 2 2 2 2 2 2 2 2 2 2 2 2 2 2 2 2 2 1 1 1 1 2 2 3 2 2 2 2 3 3 3 3 3 3 3 3 3 3 4 4 4
2 2 2 2 2 2 2 2 2 2 2 2 2 2 2 2 1 1 1 1 1 0 0 1 1 2 2 2 2 2 2 2 2 2 3 3 3 3 3 3 3 3 3
1 1 1 1 1 1 1 1 1 1 1 1 1 1 1 1 1 1 1 0 0 -0 -0 0 1 1 1 1 1 1 1 1 2 2 2 2 2 2 2 2 2 2 3
0 0 0 0 0 1 1 1 1 1 1 1 1 1 0 0 0 0 -0 -0 -0 -1 -1 -1 -0 -0 -0 -0 0 0 0 1 1 1 1 1 1 1 1 1 1 1 2
-0 -0 -0 -0 -0 -0 -0 -0 -0 -0 -0 -0 -0 -0 -0 -0 -0 -0 -1 -1 -1 -1 -1 -2 -1 -1 -1 -1 -1 -0 -0 -0 -0 0 0 1 1 1 1 1 1 1 1
-1 -1 -1 -1 -1 -1 -1 -1 -1 -1 -1 -1 -1 -1 -1 -1 -1 -1 -1 -1 -2 -2 -2 -2 -2 -2 -2 -2 -2 -1 -1 -1 -1 -1 -0 -0 -0 -0 -0 -0 -0 0 0
-2 -2 -2 -2 -2 -2 -2 -2 -2 -2 -2 -2 -2 -2 -2 -2 -2 -2 -2 -2 -3 -3 -3 -3 -3 -3 -3 -3 -3 -3 -3 -2 -2 -1 -1 -1 -1 -1 -1 -1 -1 -1 -0
-3 -3 -3 -3 -3 -3 -3 -3 -3 -3 -3 -3 -3 -3 -3 -3 -3 -3 -3 -3 -4 -4 -4 -4 -4 -4 -3 -3 -3 -3 -3 -3 -3 -2 -2 -2 -2 -2 -2 -1 -1 -1 -1
-4 -4 -4 -4 -3 -3 -3 -3 -3 -4 -4 -4 -4 -3 -3 -4 -4 -4 -4 -4 -4 -4 -5 -5 -5 -4 -4 -4 -4 -4 -4 -4 -4 -3 -4 -3 -3 -2 -2 -2 -2 -2 -2
-4 -4 -4 -4 -4 -4 -4 -4 -4 -4 -4 -4 -4 -4 -4 -4 -5 -5 -5 -5 -5 -5 -5 -5 -5 -5 -5 -5 -5 -5 -5 -5 -5 -4 -4 -4 -3 -3 -3 -3 -2 -2 -2
-5 -5 -5 -5 -5 -5 -5 -5 -5 -5 -5 -5 -5 -5 -5 -5 -5 -6 -6 -6 -6 -6 -6 -6 -6 -6 -6 -6 -6 -6 -6 -6 -6 -5 -5 -5 -4 -4 -4 -3 -3 -3 -3
-6 -6 -6 -6 -6 -6 -6 -6 -6 -6 -6 -6 -6 -6 -6 -6 -6 -7 -7 -7 -7 -6 -6 -6 -6 -6 -7 -7 -6 -7 -6 -7 -7 -6 -6 -6 -5 -5 -5 -4 -4 -4 -4
Wind_Speed
5 6 6 7 7 7 7 7 7 8 9 9 9 9 9 9 10 9 9 10 9 9 9 9 9 9 9 9 9 9 9 9 10 10 9 9 8 8 7 6 6 5 5
6 6 6 6 6 6 7 6 6 6 7 8 8 8 8 9 9 9 9 9 9 9 8 8 8 7 7 7 7 7 8 8 9 9 9 9 8 7 6 5 4 4 4
7 7 6 5 5 6 7 7 7 7 6 7 6 7 8 8 9 9 9 9 9 9 9 8 7 7 7 7 6 7 7 7 8 7 7 7 7 6 6 5 3 3 3
7 7 6 5 6 6 7 5 5 4 4 4 4 5 6 7 8 9 9 9 9 9 9 9 8 7 6 6 6 6 5 6 6 6 6 6 6 5 5 4 3 3 2
7 7 6 6 7 6 6 5 4 3 4 4 4 4 5 5 6 7 8 9 9 10 9 9 10 9 8 7 6 5 5 4 4 4 5 5 5 5 4 3 2 2 2
7 7 6 7 7 5 4 4 4 4 3 3 4 4 4 4 5 6 6 7 9 10 10 9 9 8 9 9 8 7 6 4 4 4 4 4 4 4 4 4 2 2 2
6 7 6 6 6 4 4 4 4 5 4 3 3 3 3 3 4 4 5 6 7 8 8 8 7 7 7 8 8 8 7 6 5 5 5 4 4 5 5 5 4 4 4
6 6 6 5 5 4 5 4 4 3 2 3 2 2 1 2 3 3 3 4 5 6 7 7 7 6 6 6 7 7 7 7 7 6 5 5 5 5 6 6 5 5 6
5 5 6 6 5 5 4 3 4 4 3 2 3 2 2 1 1 2 2 3 3 3 5 6 6 6 5 6 6 7 7 6 7 7 7 6 6 7 7 7 6 5 4
5 5 5 6 5 4 4 3 4 3 4 3 2 3 2 2 1 1 2 2 2 2 3 4 5 5 5 5 6 7 7 7 7 7 8 8 8 8 8 8 8 7 6
3 4 5 5 5 4 4 4 3 3 3 3 2 1 2 2 2 1 1 3 3 2 2 3 3 3 5 5 6 8 8 8 8 9 9 8 8 9 8 8 9 8 7
2 3 3 4 4 4 3 3 3 3 2 3 2 2 2 1 1 1 1 2 3 3 3 2 1 2 4 5 6 8 9 9 10 9 9 9 9 9 9 9 10 9 9
1 2 2 2 3 3 3 3 3 2 2 2 2 1 1 1 1 1 1 1 2 2 2 1 2 2 4 5 7 9 9 10 11 10 10 9 9 9 9 10 10 10 10
2 2 2 2 3 3 3 3 2 2 2 2 1 1 1 1 1 1 1 1 2 2 2 3 1 2 4 6 8 9 9 11 11 11 10 10 10 9 9 10 10 10 10
2 3 3 3 3 3 3 3 2 2 2 2 2 1 1 1 1 1 1 2 2 3 4 3 2 2 5 7 9 9 10 11 12 11 10 10 10 9 9 10 10 10 10
2 3 3 3 3 3 3 3 2 2 2 2 1 1 1 1 1 1 1 1 2 3 4 2 2 4 7 8 10 10 10 12 12 12 11 10 10 10 10 10 10 11 10
3 3 3 3 3 3 3 3 2 2 2 1 1 2 2 2 1 1 1 1 2 2 5 5 3 4 4 5 8 9 10 10 11 12 11 11 11 11 11 11 11 11 11
3 3 3 3 3 3 3 3 3 2 3 2 2 2 2 2 2 2 2 3 3 3 4 7 5 3 4 5 6 7 8 9 10 12 12 12 12 12 12 11 11 11 10
3 3 3 4 4 3 3 3 3 3 3 3 3 3 3 3 3 3 3 3 3 3 3 5 6 4 4 4 5 6 7 7 9 10 12 12 12 12 12 11 11 11 11
4 4 4 4 3 3 3 3 3 3 3 3 3 3 4 4 4 4 4 4 3 3 4 5 6 5 5 4 3 5 6 5 6 9 10 11 11 11 12 12 12 12 12
4 3 3 3 3 3 3 3 3 3 3 3 3 4 4 5 6 6 5 4 4 4 4 5 6 5 5 4 5 5 7 6 6 6 5 6 7 8 10 12 13 13 13
3 3 3 4 4 3 5 5 4 3 3 4 4 4 4 5 6 8 9 8 7 6 6 5 6 7 7 6 5 6 6 7 6 3 4 6 6 7 9 10 13 14 14
3 3 3 3 4 4 6 6 6 3 4 4 4 4 5 5 6 5 7 9 9 10 10 8 8 9 8 6 6 7 7 7 8 6 5 8 5 7 9 12 14 15 15
3 3 3 4 4 4 6 6 5 3 3 4 5 5 5 5 6 5 5 5 6 6 8 7 7 8 8 7 7 8 9 9 9 6 6 8 6 7 8 11 14 15 15
3 3 3 4 4 4 6 6 5 3 3 4 5 5 5 5 8 8 6 6 6 6 9 10 11 12 13 13 11 6 6 7 9 7 4 5 6 7 6 7 10 13 13
3 3 3 3 4 4 6 6 6 3 4 4 4 5 7 8 9 9 6 5 7 7 6 6 7 8 9 10 11 8 6 7 8 7 4 4 5 4 5 5 5 7 10
Wind_Direction
87 81 78 79 76 78 77 75 79 82 78 73 73 72 68 66 64 62 59 64 67 68 72 76 75 70 69 68 65 65 68 66 64 59 55 55 56 56 57 57 61 65 67
91 87 78 75 74 77 79 83 85 87 83 78 70 67 67 68 66 63 59 59 61 65 68 71 73 70 67 65 61 60 66 65 62 60 54 50 49 46 45 46 55 58 59
90 87 80 73 70 80 83 83 82 81 80 75 66 62 65 66 66 62 60 58 55 55 61 64 66 67 64 62 61 57 62 60 56 54 51 45 40 37 34 33 43 52 56
90 87 80 72 76 81 81 83 84 89 80 76 68 56 58 61 63 64 62 59 58 53 52 54 54 57 55 52 52 51 56 56 51 47 42 36 32 29 26 25 32 37 49
92 88 80 74 78 77 72 83 82 89 92 81 74 58 53 54 53 63 61 58 58 55 52 48 47 48 46 42 35 35 35 47 44 40 30 21 17 12 6 360 358 1 17
94 92 82 77 78 78 75 84 91 76 84 82 81 63 49 52 56 57 59 59 55 50 46 45 44 40 38 36 31 32 26 29 25 16 5 357 355 353 346 338 314 305 308
97 94 88 84 79 84 83 92 103 89 68 60 78 63 40 48 55 48 49 56 51 44 41 40 42 40 32 25 24 25 25 21 15 14 9 355 340 333 324 320 303 284 276
98 97 96 96 89 91 81 77 93 97 75 50 81 103 61 17 21 23 34 47 43 42 39 32 36 37 33 24 14 13 14 10 6 360 358 354 348 341 335 325 314 301 278
100 97 98 100 97 100 108 94 89 95 116 64 55 96 126 193 309 343 27 32 26 32 32 26 24 24 27 20 8 1 2 358 353 352 348 340 333 329 325 326 317 322 316
102 105 103 100 103 102 111 112 84 86 114 113 71 46 76 122 132 316 327 1 12 19 10 8 9 15 19 13 356 351 354 350 340 337 337 338 336 325 319 321 316 304 305
96 102 112 111 107 102 110 110 93 88 100 115 114 92 73 60 77 136 280 315 334 336 336 340 353 6 11 7 359 356 353 344 332 326 325 326 328 331 329 323 318 308 301
95 85 100 111 114 107 117 124 115 113 109 103 106 102 111 126 137 130 221 292 301 299 311 300 311 333 350 351 346 348 353 345 335 327 322 325 327 326 325 324 317 311 302
149 152 110 117 116 115 120 115 117 127 126 121 128 124 122 126 140 158 190 274 290 296 294 288 263 310 334 338 336 338 338 337 328 324 320 320 323 322 320 318 314 316 309
173 157 148 132 118 111 118 119 121 134 125 150 145 133 137 170 161 163 183 218 297 296 274 268 280 290 324 329 328 329 327 327 322 316 314 313 315 315 315 313 312 311 312
155 152 156 141 132 127 127 125 145 155 152 176 171 164 185 218 205 209 194 193 203 263 267 262 270 301 316 318 319 323 322 318 318 308 306 309 311 310 309 308 308 309 308
155 156 160 154 145 142 144 142 147 148 164 192 180 169 213 236 216 228 220 225 223 233 258 257 264 302 312 311 313 314 311 314 312 307 301 304 305 305 303 303 303 302 301
160 167 177 175 171 169 160 161 169 162 176 197 206 201 224 224 222 230 233 233 240 239 260 278 274 292 293 299 311 307 304 304 304 303 297 299 298 298 298 296 295 296 298
176 177 181 186 195 191 178 182 189 195 200 212 223 225 239 242 234 231 233 237 242 244 252 276 284 284 278 286 293 296 302 301 296 301 295 294 294 293 293 292 290 292 293
185 185 187 196 202 203 199 201 200 208 216 224 227 231 239 232 246 251 249 245 248 258 254 266 282 286 284 288 295 295 296 297 296 300 298 292 289 289 288 288 289 289 289
188 192 196 205 209 210 211 214 210 218 224 236 240 238 239 233 239 245 254 249 250 256 259 264 276 285 285 286 286 294 300 294 295 300 293 289 286 287 287 286 286 287 286
195 193 192 201 209 212 213 211 214 220 222 237 248 249 251 252 255 255 257 249 248 257 263 267 274 284 286 292 288 290 292 299 289 282 284 284 287 285 286 284 281 282 282
191 192 199 200 208 228 228 230 235 225 233 239 250 257 260 258 259 266 268 266 256 253 256 263 273 272 276 278 287 290 294 299 293 277 274 280 280 276 279 279 280 281 281
191 204 214 207 217 233 234 235 241 239 235 243 247 254 263 261 269 268 273 276 272 263 257 257 262 266 272 274 284 287 283 283 280 286 290 280 272 274 279 279 279 280 281
198 211 225 218 221 236 237 238 243 245 239 242 244 245 250 254 256 259 261 268 270 271 269 266 258 264 268 273 269 274 281 285 280 276 273 276 275 277 282 277 276 277 280
213 220 227 220 218 236 242 243 247 232 242 246 249 249 247 248 256 260 263 267 275 278 279 272 269 270 272 275 275 279 280 286 288 284 265 265 277 284 277 269 275 277 278
220 226 237 230 226 233 242 244 247 232 240 250 256 254 253 253 259 263 259 257 268 275 277 282 279 278 276 275 274 268 266 274 283 284 266 260 276 288 286 272 272 278 279
Height
1538 1540 1541 1542 1543 1545 1546 1547 1549 1550 1551 1552 1552 1553 1554 1555 1555 1556 1557 1557 1558 1558 1559 1560 1560 1561 1561 1562 1562 1562 1562 1563 1563 1563 1563 1563 1564 1564 1564 1564 1565 1565 1566
1537 1538 1540 1541 1543 1544 1545 1547 1548 1549 1550 1551 1552 1553 1554 1554 1555 1556 1556 1557 1558 1558 1559 1559 1560 1560 1561 1561 1561 1562 1562 1562 1562 1562 1562 1562 1563 1563 1563 1563 1564 1564 1565
1536 1537 1539 1540 1541 1543 1544 1546 1547 1548 1549 1550 1551 1552 1553 1554 1555 1556 1556 1557 1557 1558 1558 1559 1559 1559 1560 1560 1561 1561 1561 1561 1561 1561 1561 1561 1562 1562 1562 1562 1563 1563 1563
1534 1535 1537 1538 1540 1541 1543 1544 1546 1547 1548 1549 1550 1552 1552 1553 1554 1555 1556 1556 1557 1557 1558 1558 1559 1559 1559 1559 1560 1560 1560 1560 1560 1560 1560 1560 1560 1560 1560 1561 1561 1561 1561
1531 1533 1535 1537 1538 1540 1542 1543 1545 1546 1547 1548 1549 1550 1551 1552 1553 1554 1555 1555 1556 1557 1557 1557 1558 1558 1558 1558 1558 1558 1559 1558 1559 1559 1559 1559 1559 1559 1558 1559 1559 1559 1559
1529 1531 1533 1535 1536 1538 1540 1541 1543 1544 1546 1547 1548 1549 1550 1551 1552 1553 1553 1554 1555 1555 1556 1556 1556 1556 1557 1557 1557 1557 1557 1557 1557 1557 1557 1557 1557 1557 1556 1556 1556 1557 1557
1527 1529 1531 1532 1534 1536 1537 1539 1541 1542 1544 1545 1546 1547 1549 1550 1551 1551 1552 1552 1553 1553 1554 1554 1554 1555 1555 1555 1555 1555 1555 1555 1555 1555 1555 1555 1555 1555 1554 1554 1554 1554 1554
1525 1527 1528 1530 1532 1534 1536 1537 1538 1540 1541 1543 1544 1545 1547 1549 1549 1549 1550 1550 1551 1551 1552 1552 1552 1552 1553 1553 1553 1553 1553 1553 1553 1553 1553 1553 1553 1552 1552 1551 1551 1551 1551
1523 1525 1526 1528 1530 1532 1533 1534 1536 1537 1538 1541 1543 1544 1545 1545 1546 1547 1547 1548 1549 1549 1549 1550 1550 1550 1550 1551 1551 1551 1551 1551 1550 1550 1550 1550 1550 1549 1549 1548 1548 1548 1548
1521 1523 1524 1526 1528 1530 1531 1532 1534 1535 1537 1538 1540 1541 1543 1543 1544 1544 1545 1546 1546 1547 1547 1547 1547 1548 1548 1548 1548 1548 1548 1548 1548 1547 1547 1547 1547 1546 1546 1545 1545 1545 1544
1519 1521 1523 1524 1526 1528 1529 1531 1532 1533 1535 1536 1537 1538 1540 1541 1541 1542 1541 1542 1543 1544 1544 1544 1544 1545 1545 1545 1545 1544 1544 1544 1544 1544 1544 1543 1543 1542 1542 1541 1541 1541 1541
1516 1518 1520 1522 1523 1525 1527 1528 1529 1531 1532 1534 1535 1536 1537 1538 1538 1539 1539 1539 1539 1540 1541 1541 1541 1542 1542 1542 1541 1541 1541 1541 1541 1540 1540 1540 1539 1539 1538 1538 1537 1537 1537
1512 1515 1517 1519 1521 1523 1524 1526 1526 1528 1529 1531 1532 1533 1534 1535 1536 1537 1537 1536 1536 1536 1536 1538 1538 1538 1538 1538 1538 1537 1537 1537 1536 1536 1536 1535 1535 1534 1534 1534 1533 1533 1532
1509 1512 1515 1516 1518 1519 1521 1522 1524 1525 1527 1528 1529 1530 1531 1532 1533 1534 1534 1534 1533 1532 1532 1533 1534 1534 1535 1535 1534 1534 1533 1532 1532 1532 1531 1531 1530 1530 1529 1529 1528 1528 1528
1506 1509 1511 1513 1514 1516 1518 1519 1521 1522 1523 1525 1526 1527 1528 1529 1530 1530 1531 1531 1532 1529 1527 1528 1529 1530 1530 1530 1530 1529 1528 1528 1527 1527 1526 1526 1525 1525 1524 1524 1523 1523 1522
1503 1504 1506 1508 1510 1512 1514 1516 1517 1518 1519 1521 1522 1522 1524 1525 1526 1526 1527 1527 1527 1527 1525 1523 1524 1525 1525 1525 1525 1524 1523 1523 1522 1521 1521 1521 1520 1519 1519 1518 1518 1517 1517
1498 1500 1502 1504 1506 1508 1509 1511 1512 1513 1515 1516 1517 1518 1519 1520 1521 1522 1522 1522 1522 1522 1520 1519 1520 1520 1520 1520 1519 1519 1518 1517 1517 1516 1515 1515 1514 1514 1513 1513 1512 1512 1511
1494 1496 1498 1500 1502 1503 1504 1506 1507 1509 1510 1511 1512 1513 1514 1515 1516 1516 1517 1517 1517 1517 1516 1514 1514 1514 1515 1515 1514 1513 1513 1512 1511 1510 1510 1509 1508 1508 1507 1507 1506 1505 1505
1489 1491 1493 1495 1497 1498 1500 1501 1502 1504 1505 1506 1507 1508 1509 1509 1510 1511 1511 1511 1512 1512 1511 1510 1508 1509 1508 1509 1508 1507 1507 1506 1505 1504 1503 1503 1502 1502 1501 1501 1500 1499 1499
1484 1486 1488 1490 1491 1493 1494 1496 1497 1499 1500 1501 1502 1503 1503 1504 1505 1505 1505 1506 1506 1506 1506 1505 1504 1503 1503 1503 1502 1501 1499 1499 1498 1498 1497 1497 1496 1495 1495 1494 1494 1493 1492
1479 1481 1483 1484 1486 1487 1489 1490 1491 1493 1494 1495 1496 1497 1498 1498 1499 1500 1500 1500 1500 1500 1500 1500 1499 1498 1497 1497 1497 1495 1493 1492 1491 1491 1490 1490 1489 1488 1488 1487 1487 1486 1486
1474 1476 1478 1479 1481 1482 1484 1485 1486 1487 1488 1489 1490 1491 1492 1493 1493 1494 1494 1495 1495 1495 1494 1494 1493 1492 1492 1492 1491 1490 1488 1486 1484 1485 1484 1482 1483 1481 1481 1480 1480 1479 1479
1469 1471 1473 1474 1475 1477 1479 1480 1481 1482 1483 1484 1485 1485 1486 1486 1487 1487 1488 1488 1488 1489 1489 1489 1487 1487 1486 1486 1485 1484 1483 1481 1479 1478 1478 1475 1475 1474 1474 1473 1473 1472 1472
1465 1466 1468 1469 1471 1472 1473 1474 1476 1477 1477 1478 1479 1480 1480 1480 1481 1481 1481 1481 1481 1482 1482 1482 1481 1480 1481 1480 1480 1479 1477 1475 1472 1472 1472 1469 1467 1467 1467 1466 1466 1465 1465
1460 1462 1463 1465 1466 1467 1468 1469 1470 1471 1472 1473 1474 1474 1474 1474 1475 1475 1475 1475 1475 1475 1476 1476 1475 1474 1474 1474 1474 1473 1471 1469 1466 1464 1465 1464 1460 1460 1459 1458 1458 1458 1457
1456 1458 1459 1460 1461 1462 1463 1464 1465 1466 1467 1467 1468 1468 1469 1469 1469 1470 1470 1470 1469 1468 1469 1468 1468 1467 1467 1467 1467 1467 1465 1464 1461 1458 1458 1458 1455 1454 1451 1450 1451 1451 1450